Location: Unspecified
(0.0000°N, 0.0000°E)
Time: 12:07:44
(UTC+00:00)

Vanguard 1 Rocket - All Passes

Search period start: 23 January 2021 00:00
Search period end: 02 February 2021 00:00
Orbit: 655 x 4221 km, 34.3° (Epoch: 23 January)

Date Brightness Start Highest point End Pass type
(mag) Time Alt. Az. Time Alt. Az. Time Alt. Az.
23 Jan - 00:43:39 10° SW 01:00:41 23° S 01:19:07 10° SE visible
23 Jan - 03:23:35 10° SW 03:42:51 25° SSE 03:57:07 10° ESE visible
23 Jan - 05:58:06 10° SW 06:18:01 50° SSE 06:28:33 10° ENE daylight
23 Jan - 08:32:20 10° WSW 08:46:10 53° NW 08:53:19 10° NE daylight
23 Jan - 18:30:15 10° NW 18:38:09 54° NE 18:53:38 10° ESE visible
23 Jan - 20:55:06 10° WNW 21:06:47 53° SSW 21:28:27 10° SE visible
23 Jan - 23:26:56 10° WSW 23:42:26 27° SSW 00:02:36 10° SE visible
24 Jan - 02:06:23 10° SW 02:24:47 23° S 02:40:56 10° SE visible
24 Jan - 04:42:23 10° SW 05:03:24 38° SSE 05:16:07 10° E visible
24 Jan - 07:16:12 10° SW 07:34:24 89° NW 07:43:12 10° NE daylight
24 Jan - 09:53:45 10° W 10:00:04 18° NW 10:04:37 10° N daylight
24 Jan - 17:20:58 10° NNW 17:26:54 27° NE 17:36:29 10° E daylight
24 Jan - 19:43:41 10° WNW 19:53:14 75° SW 20:12:41 10° SE visible
24 Jan - 22:12:08 10° W 22:25:39 33° SSW 22:46:26 10° SE visible
25 Jan - 00:48:57 10° SW 01:05:48 22° S 01:23:32 10° SE visible
25 Jan - 03:26:28 10° SW 03:47:19 30° SSE 04:02:10 10° ESE visible
25 Jan - 06:00:18 10° SW 06:21:26 63° SSE 06:32:15 10° ENE daylight
25 Jan - 08:35:52 10° WSW 08:48:55 39° NW 08:56:05 10° NNE daylight
25 Jan - 18:33:11 10° NW 18:40:57 72° NE 18:56:45 10° ESE visible
25 Jan - 20:59:02 10° W 21:10:23 42° SSW 21:30:35 10° SE visible
25 Jan - 23:32:12 10° SW 23:47:10 23° S 00:05:55 10° SE visible
26 Jan - 02:10:14 10° SW 02:29:43 25° SSE 02:46:19 10° ESE visible
26 Jan - 04:44:34 10° SW 05:07:08 47° SSE 05:20:15 10° E visible
26 Jan - 07:18:59 10° WSW 07:37:17 70° NW 07:46:18 10° NE daylight
26 Jan - 09:59:50 10° WNW 10:03:05 12° NW 10:05:49 10° NNW daylight
26 Jan - 17:23:31 10° NNW 17:29:40 37° NE 17:40:32 10° ESE daylight
26 Jan - 19:47:12 10° WNW 19:56:31 58° SSW 20:14:59 10° SE visible
26 Jan - 22:16:56 10° WSW 22:29:54 27° SSW 22:48:56 10° SE visible
27 Jan - 00:53:47 10° SW 01:10:58 22° S 01:28:34 10° SE visible
27 Jan - 03:28:59 10° SW 03:51:27 36° SSE 04:06:52 10° E visible
27 Jan - 06:02:38 10° SW 06:24:35 79° SE 06:35:40 10° ENE daylight
27 Jan - 08:39:53 10° W 08:51:39 29° NW 08:58:39 10° NNE daylight
27 Jan - 16:15:14 10° N 16:18:45 15° NE 16:23:20 10° ENE daylight
27 Jan - 18:36:20 10° NW 18:43:56 87° SW 18:59:32 10° SE visible
27 Jan - 21:03:17 10° W 21:14:14 34° SSW 21:32:43 10° SE visible
27 Jan - 23:37:30 10° SW 23:52:09 21° S 00:09:54 10° SE visible
28 Jan - 02:13:29 10° SW 02:34:21 28° SSE 02:51:35 10° ESE visible
28 Jan - 04:46:46 10° SW 05:10:36 57° SSE 05:24:05 10° ENE visible
28 Jan - 07:22:05 10° WSW 07:40:01 55° NW 07:49:13 10° NE daylight
28 Jan - 17:26:16 10° NW 17:32:28 53° NE 17:44:04 10° ESE daylight
28 Jan - 19:50:59 10° W 20:00:03 44° SSW 20:17:09 10° SE visible
28 Jan - 22:22:03 10° WSW 22:34:25 23° S 22:51:46 10° SE visible
29 Jan - 00:57:59 10° SW 01:16:02 23° SSE 01:34:01 10° ESE visible
29 Jan - 03:31:21 10° SW 03:55:16 43° SSE 04:11:13 10° E visible
29 Jan - 06:05:10 10° SW 06:27:31 84° NW 06:38:52 10° NE daylight
29 Jan - 08:44:33 10° W 08:54:29 22° NW 09:00:57 10° N daylight
29 Jan - 16:17:10 10° N 16:21:39 23° NE 16:28:13 10° E daylight
29 Jan - 18:39:43 10° WNW 18:47:08 65° SSW 19:02:04 10° SE visible
29 Jan - 21:07:54 10° WSW 21:18:21 27° SSW 21:34:54 10° SE visible
29 Jan - 23:42:31 10° SW 23:57:15 21° S 00:14:37 10° SE visible
30 Jan - 02:16:19 10° SW 02:38:36 33° SSE 02:56:34 10° E visible
30 Jan - 04:49:02 10° SW 05:13:47 70° SE 05:27:37 10° ENE visible
30 Jan - 07:25:36 10° WSW 07:42:42 42° NW 07:51:57 10° NNE daylight
30 Jan - 17:29:16 10° NW 17:35:24 75° NE 17:47:12 10° ESE daylight
30 Jan - 19:55:05 10° W 20:03:49 34° SSW 20:19:13 10° SE visible
30 Jan - 22:27:20 10° SW 22:39:13 20° S 22:55:08 10° SE visible
31 Jan - 01:01:35 10° SSW 01:20:48 26° SSE 01:39:32 10° ESE visible
31 Jan - 03:33:38 10° SW 03:58:45 52° SSE 04:15:12 10° ENE visible
31 Jan - 06:07:57 10° WSW 06:30:16 69° NW 06:41:53 10° NE daylight
31 Jan - 08:50:03 10° WNW 08:57:29 16° NW 09:02:54 10° N daylight
31 Jan - 16:19:37 10° NNW 16:24:30 34° NE 16:32:19 10° ESE daylight
31 Jan - 18:43:22 10° W 18:50:35 47° SSW 19:04:22 10° SE visible
31 Jan - 21:12:55 10° WSW 21:22:43 22° S 21:37:15 10° SSE visible
31 Jan - 23:47:01 10° SSW 00:02:20 21° S 00:20:00 10° SE visible
01 Feb - 02:18:53 10° SW 02:42:30 40° SSE 03:01:10 10° E visible
01 Feb - 04:51:26 10° SW 05:16:45 84° SE 05:30:54 10° NE visible
01 Feb - 07:29:37 10° W 07:45:23 33° NW 07:54:33 10° NNE daylight
01 Feb - 15:11:41 10° NNE 15:13:47 12° NE 15:16:09 10° ENE daylight
01 Feb - 17:32:30 10° WNW 17:38:31 76° SW 17:50:02 10° SE daylight
01 Feb - 19:59:35 10° WSW 20:07:48 26° SSW 20:21:13 10° SSE visible
01 Feb - 22:32:31 10° SW 22:44:10 19° S 22:59:17 10° SE visible
